User: anonymous   Login
Location: Fort Wayne
(41.1310°N, 85.1290°W)
Time: 23:56:27
(UTC-05:00)
Language:

Gbstr 26 Del rocket - Orbit

View from above orbital plane
View from above orbital plane
View from above satellite
View from above satellite

Ground track
Ground track

The orbit data is extracted from the following two-line orbital elements,

1 25876U 99041E   16344.42079117 -.00000014  00000-0  37888-4 0  9994
2 25876  51.7664 345.4761 0532220 194.9766 163.4857 14.03963954887950
Epoch (UTC): 09 December 2016 10:05:56
Eccentricity: 0.0532220
inclination: 51.7664°
perigee height: 494 km
apogee height: 1266 km
right ascension of ascending node: 345.4761°
argument of perigee: 194.9766°
revolutions per day: 14.03963954
mean anomaly at epoch: 163.4857°
orbit number at epoch: 88795

The dashed part of the orbit path shows where the satellite is in the earth's shadow,  

DLR